Temp
15 14 14 15 16 16 16 18 18 18 19 19 20 20 20 21 20 20 22 21 22 23 23 23 23 24 24 22 21 20 21 21 21 22 22 21 21 21 21 21 21 21 21 21 20 18 18 18 18 18 18 18 17 17 17 17 17 17 17 17 17 17 17 17 17 17 17 17 17 16 17 17 18 18 18 18 18 18 18 18 18 18 18 18 18 18
14 14 14 15 16 16 17 17 18 18 19 20 20 20 20 21 21 21 22 21 21 22 23 23 23 24 24 23 21 20 20 20 21 21 21 21 21 21 21 21 21 21 21 20 19 18 18 18 18 18 18 18 18 17 17 17 17 17 17 17 17 17 17 17 17 17 17 17 17 17 17 17 18 17 17 18 18 18 18 18 18 18 18 18 18 18
13 14 15 16 16 16 17 17 18 18 18 19 20 20 20 20 21 21 21 21 21 23 23 22 22 24 24 20 20 20 20 20 21 21 21 21 21 21 21 21 21 21 21 20 19 18 18 18 17 17 18 18 18 18 17 17 17 17 17 17 17 17 17 17 17 17 18 17 17 17 17 18 18 17 17 18 18 18 18 18 18 18 18 18 18 18
13 14 15 15 16 16 16 17 18 18 18 19 20 20 20 20 20 21 21 21 21 22 22 21 22 24 22 18 18 19 20 21 21 21 21 21 22 21 21 21 21 21 21 20 20 19 18 18 17 17 18 18 18 17 17 17 17 17 17 17 17 17 17 17 17 18 19 18 17 17 18 18 17 17 17 18 18 17 18 18 18 18 18 18 18 18
14 15 16 15 16 16 16 17 18 18 18 18 19 20 20 19 20 21 21 21 21 20 21 22 21 22 22 20 19 19 19 20 20 20 20 21 21 21 21 21 21 21 21 20 20 19 18 17 17 17 18 18 17 17 17 17 17 17 17 17 17 17 17 17 18 18 18 18 17 17 17 17 17 17 17 17 17 16 17 17 17 17 17 18 18 18
14 15 15 16 16 17 17 17 18 19 18 18 18 19 20 20 21 21 21 21 21 21 21 22 21 21 21 21 21 19 18 18 19 19 20 20 21 21 21 21 21 21 21 20 20 19 18 17 17 17 17 18 17 17 17 17 17 17 16 16 16 17 17 17 17 18 18 18 17 17 17 16 16 16 16 17 16 16 17 17 17 17 17 17 17 17
14 14 15 16 16 16 17 17 18 19 18 18 19 19 19 20 21 21 21 21 21 21 20 20 21 21 21 22 21 19 18 18 19 19 20 20 20 20 21 21 21 21 21 20 20 19 18 17 17 17 17 17 17 17 17 17 17 16 16 16 16 17 17 17 17 17 18 18 17 17 17 17 17 16 16 16 16 17 16 16 16 17 17 17 17 17
15 14 15 16 16 16 17 17 17 19 19 19 19 18 19 20 20 20 21 21 21 21 20 20 21 21 21 21 19 18 18 19 19 19 20 20 20 20 21 21 21 21 21 20 20 19 18 18 18 17 17 17 17 17 17 17 17 16 16 16 16 17 17 17 17 17 18 17 17 17 17 17 17 17 17 16 17 16 15 16 16 17 17 16 16 16
15 15 14 16 16 16 17 17 17 18 19 19 18 18 19 20 20 21 21 21 20 21 20 20 21 21 21 21 18 17 19 20 19 19 20 20 20 20 20 20 20 21 21 20 20 19 18 18 18 17 17 17 17 17 17 17 17 17 17 16 16 17 17 17 17 17 17 17 16 17 18 17 17 17 17 16 16 15 15 16 16 16 16 16 16 16
15 16 15 16 16 16 17 17 17 18 19 19 18 18 19 19 20 20 21 21 20 20 20 20 21 21 21 20 19 18 20 21 21 21 21 21 20 20 20 20 20 20 20 20 20 19 18 18 18 17 17 17 17 17 17 17 17 17 17 16 16 16 16 17 17 17 18 17 16 17 18 18 17 17 17 15 15 15 16 16 16 16 16 16 16 15
15 16 16 16 17 17 17 17 18 19 19 18 19 19 19 19 19 20 20 20 20 19 20 20 21 21 21 21 20 20 21 22 23 23 22 21 21 20 20 20 20 20 20 20 19 19 18 18 18 17 17 17 17 17 17 17 17 17 17 16 16 16 16 16 16 17 17 17 17 18 18 18 17 17 17 16 15 15 16 15 15 16 16 15 15 15
15 15 16 16 17 17 17 17 18 19 18 19 20 20 19 18 19 19 19 19 19 19 20 20 20 21 20 21 22 22 23 23 24 24 24 23 21 21 20 20 20 20 20 20 19 18 18 18 18 17 17 17 17 17 17 17 17 17 16 16 15 16 16 16 16 16 17 17 18 18 18 19 18 18 17 16 15 16 16 15 15 15 15 15 15 15
15 15 15 17 18 18 18 17 17 18 18 19 20 19 19 18 18 18 18 18 18 19 19 19 20 21 20 22 23 23 23 23 23 24 25 24 23 21 21 20 20 20 20 19 18 18 18 18 18 17 17 17 17 17 17 17 17 16 16 16 16 16 16 16 16 16 16 17 18 18 19 19 18 18 18 17 16 16 16 16 16 15 15 15 14 14
14 14 15 16 17 18 19 18 17 17 18 19 20 20 19 18 17 17 18 18 18 20 19 18 19 20 20 23 24 24 24 24 23 23 24 24 23 21 21 20 20 20 19 18 18 18 18 18 18 17 17 17 17 17 17 17 17 16 16 17 16 16 16 16 16 16 16 16 17 18 19 18 18 18 18 17 17 17 17 17 16 16 16 15 14 14
13 13 15 16 17 18 19 19 18 18 18 19 20 20 20 19 18 18 18 18 19 20 19 18 20 20 21 22 23 23 23 22 21 22 22 22 21 21 20 20 20 19 19 18 18 18 18 18 18 17 17 17 17 17 17 17 17 16 16 17 16 16 16 16 15 15 16 16 17 18 18 18 18 17 17 17 17 17 17 17 16 16 16 15 14 14
14 14 16 17 17 18 18 19 19 19 18 18 20 20 20 20 20 18 18 19 19 20 19 19 20 21 22 23 21 19 20 20 19 20 21 21 21 20 20 20 20 20 19 19 18 18 18 18 18 17 17 17 17 17 17 17 17 16 16 16 16 16 16 15 15 16 16 16 16 17 18 17 17 17 17 16 16 16 17 17 16 16 15 15 14 14
14 15 16 16 17 18 19 18 19 19 19 18 19 19 19 20 20 19 17 17 18 20 19 19 20 21 22 23 21 19 20 21 19 20 20 20 20 20 20 20 20 20 19 19 18 18 18 18 18 17 17 17 17 17 17 17 17 16 15 15 16 16 15 15 16 17 16 16 16 17 17 17 17 17 17 17 16 16 16 16 16 16 15 15 14 14
15 15 16 16 16 17 19 19 19 20 19 18 18 19 19 19 20 20 19 17 18 20 20 19 20 21 21 22 22 21 22 22 20 19 20 20 20 20 20 20 20 20 19 19 19 18 18 18 18 17 17 17 17 17 17 17 17 17 16 15 16 16 15 16 16 16 16 16 16 17 16 16 17 17 16 16 16 16 16 16 16 16 15 14 14 13
16 15 15 17 17 17 19 19 18 19 19 19 20 20 20 19 19 19 19 18 19 19 19 19 20 21 21 22 23 23 24 25 21 19 19 19 19 20 20 19 20 20 19 19 18 18 18 18 18 18 17 17 17 17 17 17 17 17 16 15 16 17 16 16 16 16 16 16 16 16 15 16 16 16 16 16 16 16 16 16 16 16 15 14 14 13
15 15 15 17 18 17 18 18 18 18 18 19 20 20 19 20 20 20 19 20 20 19 19 20 20 20 21 23 25 25 26 25 21 19 19 20 20 20 20 19 19 19 19 19 18 18 18 18 18 18 18 17 17 17 17 17 17 17 16 15 16 16 16 15 15 16 16 16 16 16 15 16 16 16 16 16 16 16 16 16 16 15 15 14 13 13
15 15 15 16 17 17 17 18 18 18 18 19 19 19 19 19 20 20 20 19 20 20 19 20 20 21 23 24 25 26 26 24 21 20 19 19 20 20 20 19 19 19 19 19 19 19 18 18 18 18 18 17 17 17 17 17 17 17 16 16 16 16 15 15 15 16 16 16 16 15 15 16 15 15 15 16 16 16 16 16 16 15 15 14 14 13
15 15 16 16 16 16 17 18 19 20 19 19 19 19 20 20 20 20 19 19 20 20 19 20 20 21 24 24 24 24 23 22 21 20 19 19 19 19 19 19 19 19 19 19 19 19 18 18 18 17 17 17 17 17 17 17 17 17 16 16 16 16 15 15 15 16 16 16 15 15 15 15 15 14 15 16 16 16 16 15 15 15 15 14 14 13
15 16 16 16 16 17 18 19 20 20 20 20 20 20 20 20 20 20 20 19 20 19 19 20 20 22 23 20 19 21 20 20 20 20 19 19 19 19 19 19 19 19 19 19 19 19 18 18 18 17 17 17 18 18 17 17 17 17 16 16 16 16 15 16 16 16 16 15 15 15 14 14 14 14 15 15 16 16 15 15 15 15 15 14 14 13
15 16 16 16 17 18 18 19 20 20 20 19 20 20 20 20 21 21 20 20 20 20 20 20 20 22 22 17 17 18 17 18 19 19 19 19 19 19 19 19 19 19 19 19 18 18 18 18 17 17 18 18 18 18 18 17 17 17 16 16 16 16 15 16 16 16 15 15 15 15 14 14 14 14 15 16 16 16 15 15 15 15 15 14 14 13
16 15 16 16 16 16 16 17 18 19 19 20 19 19 20 20 20 20 20 20 20 20 20 21 20 22 22 18 17 18 17 18 18 18 19 19 19 19 19 19 19 18 18 18 18 18 18 17 17 18 18 18 18 18 18 18 17 17 16 16 16 16 15 15 16 15 15 15 15 15 14 14 14 15 15 16 16 15 15 15 15 15 15 14 14 13
16 15 16 16 16 15 15 16 17 18 19 20 19 19 20 20 20 20 20 20 20 19 20 21 21 23 23 21 19 19 18 18 18 18 19 19 19 19 18 18 18 18 18 18 18 18 17 18 18 18 18 18 18 18 18 18 17 16 16 16 16 16 15 15 15 15 15 14 14 14 14 14 14 15 15 15 15 15 15 15 15 15 14 14 14 13
16 15 16 16 17 17 17 17 18 19 19 19 19 19 19 20 20 20 20 20 20 19 19 21 21 22 23 24 23 20 18 18 18 17 18 18 18 18 18 18 18 18 18 18 18 18 18 18 18 18 18 18 18 19 18 17 17 16 16 16 16 15 15 15 15 15 14 14 14 14 14 14 14 15 15 15 15 15 15 15 15 15 14 14 14 13
16 16 15 16 17 18 18 18 19 20 19 19 19 19 19 19 19 20 20 20 20 20 20 22 21 21 23 25 24 21 19 18 18 17 17 17 18 18 18 18 18 18 18 18 18 17 18 18 18 18 18 18 18 18 18 17 16 16 16 15 15 15 15 15 15 14 14 13 13 14 14 14 14 15 15 15 15 15 15 15 15 14 14 14 14 13
16 16 15 15 17 17 17 17 18 20 20 19 20 19 19 19 19 19 20 20 20 21 21 21 21 21 23 25 24 22 19 19 18 18 17 17 17 18 18 17 18 18 18 18 18 18 18 18 18 18 18 18 18 18 18 17 17 16 16 15 15 15 16 15 15 14 13 13 13 13 13 14 15 15 15 15 14 15 15 14 14 14 13 13 13 13
16 16 15 15 16 17 17 17 18 20 19 19 20 20 20 19 19 20 20 19 20 21 20 20 21 22 23 24 22 20 18 18 18 17 17 17 17 17 17 17 17 18 18 18 18 18 18 18 18 18 18 18 17 17 17 17 16 16 15 15 15 15 15 15 15 14 13 13 13 13 14 14 14 14 14 14 14 14 14 14 14 13 13 13 13 13
16 15 15 16 16 17 16 17 18 19 19 20 20 20 20 19 19 20 20 18 19 20 19 19 20 22 22 20 17 17 16 17 17 17 16 17 17 17 17 17 17 18 18 18 18 18 18 18 18 18 18 18 17 17 17 16 16 16 15 15 15 14 15 15 14 13 13 13 13 13 14 14 14 14 14 14 14 14 14 14 13 13 13 13 13 13
16 16 15 16 17 17 16 17 18 18 19 19 19 19 20 19 19 20 19 18 19 21 20 19 21 23 22 17 15 16 16 17 17 17 17 16 17 17 17 17 17 18 18 18 18 18 18 18 17 18 18 18 17 17 17 16 16 16 15 15 15 15 15 14 14 14 13 13 13 13 13 13 13 13 14 14 14 14 14 14 13 13 13 12 12 13
15 16 16 16 16 17 15 16 18 18 18 18 18 19 19 19 19 19 19 19 20 21 21 21 22 23 19 16 17 18 17 17 18 17 17 16 16 17 17 17 18 18 18 18 18 18 18 18 18 18 18 18 18 18 17 16 15 15 15 15 15 14 14 14 14 14 13 13 13 13 13 13 13 13 13 14 14 14 14 13 13 12 12 12 12 12
15 16 16 15 16 17 15 17 18 17 17 18 17 17 19 19 20 20 20 20 20 20 21 21 21 20 16 16 19 20 17 18 18 18 17 17 17 17 17 18 18 18 18 18 18 18 18 19 19 18 17 18 18 18 18 17 16 15 15 14 14 14 14 14 14 13 13 13 13 13 13 13 13 13 13 13 13 13 13 13 12 11 11 11 11 12
15 16 15 14 16 16 16 17 18 17 18 17 15 14 16 17 18 20 21 20 19 19 20 21 20 19 17 17 18 19 18 18 18 17 17 17 17 17 17 18 18 18 18 18 18 18 18 18 19 18 17 17 17 17 17 16 16 15 15 14 14 14 14 14 13 13 13 13 13 13 13 13 13 13 13 13 13 13 13 12 12 11 11 11 11 12
16 16 15 15 15 15 17 18 18 17 18 17 15 14 15 16 18 20 21 21 20 19 19 21 20 18 16 16 16 17 17 17 16 17 17 17 17 18 18 18 18 18 18 18 18 18 18 18 18 18 18 17 17 17 16 16 15 15 14 15 15 14 14 14 13 13 12 12 12 13 13 13 13 13 12 12 12 12 12 12 11 11 11 11 12 12
16 15 15 15 15 16 17 18 17 18 18 17 17 16 16 17 18 19 21 22 21 18 18 19 19 16 15 16 16 16 16 17 18 18 17 17 17 18 18 18 18 18 18 18 19 18 18 18 18 18 17 17 16 16 16 15 15 15 14 14 14 14 13 13 13 13 13 12 12 12 13 13 13 12 12 12 12 12 12 12 11 11 11 12 12 12
15 15 15 16 15 15 17 18 17 18 18 18 18 17 16 16 16 16 20 22 21 18 16 18 19 16 15 16 16 16 18 20 22 21 19 17 17 17 18 18 18 18 18 18 18 18 18 18 18 17 17 17 17 16 15 15 15 15 14 14 14 14 14 14 13 13 12 12 12 12 13 13 12 13 13 12 12 12 11 11 11 11 12 12 12 12
14 14 14 15 15 15 18 19 18 18 18 18 18 17 15 14 14 16 20 22 21 17 16 17 17 16 15 16 16 17 20 24 26 24 20 17 17 17 17 17 17 18 18 18 18 17 17 17 17 17 17 17 16 16 15 15 15 14 14 14 14 14 14 14 13 13 12 12 11 12 13 12 12 12 12 11 11 12 12 11 11 12 12 12 12 12
15 14 14 15 15 15 17 18 17 17 18 17 17 16 14 13 14 18 21 21 20 17 15 16 17 16 16 17 17 19 23 26 26 22 19 17 17 17 17 17 17 17 17 17 17 17 16 16 17 17 17 17 16 15 16 15 15 14 14 14 14 14 13 13 13 12 12 12 12 12 12 12 13 12 11 12 12 12 11 12 12 12 11 11 11 11
15 14 13 15 16 16 17 18 17 17 17 16 16 15 13 13 17 21 21 20 18 17 15 15 16 16 16 16 18 20 21 21 19 16 15 16 17 16 17 17 17 17 17 16 16 16 16 16 16 17 17 17 15 15 15 15 15 15 14 14 14 13 13 13 12 12 12 12 12 12 11 12 12 11 12 13 12 10 10 11 11 11 11 11 11 11
15 15 14 15 16 16 16 17 17 18 17 14 14 14 14 17 20 20 18 16 16 16 16 15 15 16 16 16 18 19 17 15 13 13 14 16 17 16 16 16 16 15 15 15 15 15 16 16 16 16 16 16 15 14 14 15 15 15 14 13 13 13 13 12 12 12 12 12 11 11 11 10 10 11 12 12 10 9 9 10 11 11 10 10 10 10
15 16 16 16 15 15 17 17 18 18 16 13 14 16 16 18 19 17 15 15 15 15 15 15 15 15 16 17 17 16 14 13 13 13 15 16 16 16 16 16 15 15 14 15 15 15 15 16 16 16 15 15 14 14 14 14 14 14 13 12 12 12 12 12 12 11 11 11 10 10 10 9 10 12 12 11 10 10 10 10 10 10 10 10 10 10
15 16 17 16 14 16 19 18 17 17 15 13 14 16 16 16 15 13 14 16 16 15 15 15 15 14 15 17 17 16 14 13 13 14 14 15 15 16 16 15 15 15 15 15 15 15 15 16 15 15 14 14 14 13 13 13 13 13 13 11 11 12 12 12 11 11 10 10 10 10 10 10 12 13 12 10 10 10 10 10 9 9 9 9 10 9
14 14 15 15 14 15 16 16 15 14 14 12 13 14 14 14 13 12 13 15 15 14 14 14 15 14 15 16 17 16 15 14 13 13 14 14 15 15 15 15 14 15 15 15 14 14 14 15 15 14 13 13 13 13 13 13 13 13 12 11 11 12 12 11 11 11 10 10 10 9 9 11 12 11 10 9 9 9 10 9 8 8 8 8 8 8
13 12 13 14 14 14 14 15 14 14 13 13 13 13 13 13 13 12 12 14 14 14 13 13 14 15 15 16 18 17 15 13 13 13 13 14 14 14 14 14 14 14 14 14 14 14 14 14 14 13 13 12 12 13 13 13 13 12 11 11 12 12 12 11 11 10 10 10 9 9 10 11 10 8 8 9 9 9 9 9 9 8 8 8 8 8
13 12 13 14 14 15 15 15 14 14 13 13 13 14 13 13 13 12 12 13 13 13 12 13 14 15 15 16 18 17 14 13 13 14 13 13 14 13 14 14 13 14 14 14 13 13 13 13 13 13 12 11 12 13 13 13 12 12 11 11 12 12 12 11 11 10 9 9 9 10 10 10 8 7 8 9 9 9 9 9 9 8 8 7 7 7
13 13 14 14 14 14 15 14 13 13 13 12 12 13 13 13 13 12 12 12 13 13 13 13 14 15 15 15 16 15 13 13 13 14 13 13 13 13 13 13 13 13 13 13 13 13 13 13 13 12 12 11 12 13 13 13 12 11 11 11 11 11 11 11 10 10 9 9 9 9 9 9 8 8 8 8 8 8 8 8 8 9 9 9 9 8
12 13 14 13 13 14 14 14 14 15 15 14 13 12 11 11 12 12 12 12 13 13 14 13 13 14 14 13 13 13 13 13 13 13 13 13 13 13 13 13 13 13 13 13 13 13 13 13 12 12 11 11 12 12 12 12 11 11 11 11 11 11 11 10 10 10 9 9 9 9 9 8 8 8 7 7 8 8 8 9 9 10 10 10 10 10
13 14 13 13 15 15 15 15 15 16 16 15 13 12 11 11 12 12 12 12 12 12 14 14 14 13 13 13 13 13 13 13 12 13 13 13 13 13 13 13 13 12 12 12 12 13 13 12 12 12 11 11 11 12 12 11 11 11 11 11 11 11 11 10 10 9 9 9 9 8 8 8 7 7 8 8 7 7 7 7 8 9 9 9 9 9
12 13 13 14 15 15 14 14 14 15 15 13 12 11 11 11 11 12 11 11 11 11 12 13 14 13 13 12 12 13 13 12 12 13 13 12 12 13 13 13 13 13 12 12 13 12 12 12 12 11 11 11 11 11 12 11 11 11 11 11 11 11 10 10 9 9 9 9 8 8 8 8 7 7 8 8 7 6 6 6 6 6 7 8 9 9
Height
757 760 760 754 751 752 755 755 756 757 755 759 762 762 763 762 764 764 760 758 757 761 764 762 763 760 759 765 768 767 768 769 769 768 768 768 767 767 767 766 766 766 765 767 772 774 776 778 780 782 784 786 788 791 793 795 797 798 799 801 804 806 808 811 814 817 820 823 825 827 828 828 829 831 834 834 835 835 836 837 838 838 839 840 840 840
756 756 752 748 748 751 755 756 757 759 757 757 758 761 763 761 761 762 759 758 758 760 762 762 764 759 756 762 765 767 770 770 768 768 768 767 766 765 764 764 763 763 765 768 771 773 776 777 779 781 783 785 787 789 792 793 795 796 797 799 801 804 806 809 813 816 819 822 825 827 828 828 829 831 834 834 835 836 836 837 837 838 839 840 840 841
757 752 747 748 750 752 756 757 756 759 759 758 756 758 763 761 760 762 759 758 757 758 760 765 766 757 756 767 768 766 767 765 763 764 764 763 763 763 761 761 762 763 764 767 770 773 775 776 778 780 782 784 786 788 790 791 793 795 796 797 799 801 803 808 811 814 818 820 823 827 828 827 828 831 833 834 835 836 836 837 837 838 839 840 840 841
754 749 746 749 751 753 757 757 757 759 759 759 757 756 761 762 761 761 760 759 758 758 760 764 765 757 760 773 773 767 764 761 761 761 762 762 761 760 759 760 762 763 763 765 767 771 774 775 777 779 781 783 785 787 789 790 792 794 796 796 797 799 802 806 808 811 815 817 821 825 826 827 829 831 832 834 835 836 836 837 837 838 839 839 840 841
749 745 745 749 750 751 755 757 757 758 760 762 759 755 758 761 758 756 759 760 760 762 760 761 767 762 760 769 771 768 767 764 763 763 763 763 760 759 760 760 760 760 761 763 766 770 773 774 776 778 780 782 784 786 787 789 791 793 796 798 798 799 801 804 806 808 811 814 819 822 825 827 828 830 832 833 835 836 836 837 838 838 839 839 840 840
747 745 744 748 750 750 753 755 754 753 758 763 761 756 755 756 756 757 759 758 761 765 759 760 771 768 760 762 764 768 772 769 767 766 763 760 759 760 760 759 758 758 759 761 765 768 771 773 775 777 779 781 783 784 785 787 789 791 794 798 802 802 802 803 804 806 808 812 816 819 822 825 826 828 831 832 834 835 836 837 838 839 839 839 840 840
746 746 745 745 748 750 751 753 751 750 757 762 757 755 757 755 756 758 757 756 761 765 762 761 766 767 762 759 761 767 772 769 767 766 761 758 758 757 756 755 756 757 758 761 764 767 770 772 774 776 778 779 781 783 784 785 787 789 791 794 800 803 803 803 804 805 807 810 814 816 819 821 823 825 828 830 832 833 835 837 838 839 839 839 840 841
742 746 747 744 745 749 749 751 750 748 754 758 753 754 758 757 757 758 756 757 759 760 764 763 761 765 762 758 764 769 769 768 767 764 758 754 754 752 752 752 753 755 756 760 763 765 768 770 772 775 776 778 779 781 782 782 783 786 787 788 793 798 801 801 802 804 806 809 813 814 816 818 820 822 825 828 831 833 835 836 838 839 839 839 840 841
739 744 747 744 745 747 745 746 749 749 752 753 752 754 756 756 757 757 755 759 762 762 765 763 761 767 763 759 768 771 767 766 763 758 753 751 750 750 750 751 752 753 755 758 761 763 766 768 771 773 775 776 777 778 778 779 780 781 783 785 788 793 797 799 800 801 804 808 812 813 813 816 818 821 824 827 830 832 834 836 838 838 839 839 840 841
739 739 742 743 743 744 743 745 747 748 750 750 752 754 755 758 758 757 758 759 765 768 765 760 761 765 762 759 768 772 765 758 751 748 747 746 747 747 748 749 749 752 754 756 759 761 764 767 769 771 773 774 774 775 776 776 776 778 780 782 785 791 796 799 801 800 801 805 810 812 811 813 816 819 822 826 829 831 833 836 838 838 839 840 840 841
738 735 738 740 740 740 741 745 745 745 748 749 751 754 759 763 761 762 763 761 770 774 764 759 759 762 762 756 758 760 752 743 740 741 741 741 743 744 744 746 747 750 753 755 757 760 763 765 766 768 770 771 772 773 774 773 773 775 778 782 786 793 797 800 802 800 799 802 806 809 810 811 814 817 820 823 826 828 830 833 836 838 839 840 840 841
738 738 739 737 735 736 739 745 745 743 746 747 747 752 761 768 767 769 771 771 777 774 762 759 758 762 764 752 744 742 735 733 733 732 733 734 737 738 740 743 745 749 751 753 756 758 761 762 764 766 768 769 770 771 772 772 773 775 779 783 789 794 795 798 801 801 799 801 804 806 808 810 812 815 818 821 824 827 829 831 834 837 839 840 840 841
740 739 738 735 733 733 736 745 748 747 746 744 745 752 762 771 775 777 775 774 776 769 763 765 761 761 759 742 734 734 731 730 729 726 726 727 729 733 737 740 743 747 749 752 754 757 759 760 761 763 765 767 768 769 770 771 773 776 780 785 789 792 793 794 799 800 799 799 802 805 806 808 811 815 817 820 823 826 828 829 832 836 838 839 840 841
743 742 738 736 735 730 731 738 745 747 745 741 741 747 755 765 776 781 777 775 776 767 764 768 764 761 755 736 727 726 724 723 724 723 723 723 727 731 734 738 741 744 747 750 752 754 756 758 759 761 763 765 766 767 769 771 773 776 780 784 787 789 791 792 797 800 801 802 803 805 806 807 811 814 817 819 822 825 827 828 831 835 837 838 840 841
742 745 737 734 733 729 728 730 733 738 741 740 736 738 746 752 761 771 770 770 771 765 766 771 764 757 749 733 723 722 722 723 724 723 722 723 726 729 732 736 739 742 745 747 749 751 752 754 757 760 762 764 765 766 767 770 773 776 778 781 784 789 791 794 799 803 803 804 805 806 806 808 812 814 816 819 821 824 826 828 831 834 836 838 839 840
736 738 730 729 728 726 729 729 727 734 744 744 737 739 746 741 745 762 767 763 762 761 765 768 758 744 734 724 723 728 727 726 726 724 724 725 726 728 732 733 736 739 741 744 746 748 749 752 755 759 761 762 764 765 766 768 771 774 776 781 785 789 790 794 800 804 805 805 805 806 807 810 812 814 816 819 821 824 826 828 830 833 835 837 839 840
734 734 729 729 730 726 726 728 727 729 738 743 741 742 742 736 739 757 770 769 764 761 763 764 754 740 732 722 721 729 726 723 726 725 723 725 725 728 730 731 733 736 738 741 743 744 747 750 754 756 758 760 762 763 765 767 770 772 775 780 784 787 789 793 798 802 803 803 804 805 808 810 812 813 814 817 821 824 826 828 830 833 835 837 838 840
729 732 730 728 731 728 723 725 728 725 728 739 742 738 737 741 743 748 761 770 768 762 761 762 752 741 739 731 722 725 723 720 725 726 724 726 726 727 728 729 731 733 735 739 740 743 746 749 752 754 755 758 760 762 764 766 768 771 775 779 783 787 790 793 796 798 800 800 801 804 807 810 811 812 813 815 820 824 826 828 830 832 834 836 838 840
724 729 732 726 726 729 723 726 733 729 726 731 732 731 735 746 750 751 759 764 765 767 763 759 755 745 738 728 717 718 716 712 721 727 726 726 725 725 726 727 729 731 734 737 739 742 745 747 750 752 754 757 759 762 763 766 768 771 775 780 784 787 790 793 796 796 797 797 799 803 806 809 810 810 812 815 820 823 824 827 829 832 834 836 838 840
722 727 734 727 722 727 727 728 733 733 731 729 727 731 735 738 742 746 750 749 751 764 764 758 758 746 729 717 710 708 706 707 719 726 724 722 722 722 723 725 728 730 732 734 737 740 743 746 749 750 753 756 759 761 763 765 767 770 775 780 783 785 788 792 794 793 793 795 798 802 805 807 808 809 811 814 819 822 823 826 829 831 834 835 837 840
725 726 730 728 725 729 729 725 724 726 731 732 731 735 737 737 738 739 745 745 742 754 760 758 756 739 716 709 705 701 703 707 714 719 720 720 720 721 722 724 727 729 731 733 735 738 741 745 748 750 753 756 758 761 762 763 766 770 774 778 781 783 785 788 791 791 792 794 797 800 802 805 807 809 812 814 818 821 822 825 828 831 833 835 837 839
725 724 726 729 729 729 725 719 717 719 724 727 729 733 733 734 738 742 750 749 742 746 752 753 751 729 706 704 703 701 707 710 711 715 719 720 720 721 722 724 726 728 730 732 734 737 741 744 747 750 752 755 757 759 761 762 765 769 773 776 779 782 783 785 789 790 791 793 796 799 801 803 806 809 812 814 817 820 822 825 828 830 833 835 837 839
721 722 724 728 727 725 720 716 716 717 719 723 726 728 729 730 733 738 747 747 743 748 748 748 746 723 705 711 712 709 712 712 710 713 716 718 719 720 722 723 725 728 730 732 734 737 740 743 746 749 751 754 756 758 760 761 764 768 771 774 777 780 782 784 787 789 790 792 795 797 800 803 806 809 812 814 816 819 821 824 828 830 832 834 836 838
720 722 724 726 724 721 720 718 716 716 720 726 726 724 726 728 726 727 735 737 740 746 743 746 746 721 707 718 719 714 716 714 712 714 715 717 718 718 721 722 725 728 730 733 734 737 740 743 746 748 750 752 754 756 759 761 763 766 769 772 775 778 781 783 785 788 789 791 794 796 799 802 806 809 811 813 815 818 821 824 827 829 831 833 835 838
719 722 722 727 731 731 732 731 727 722 721 722 724 725 724 726 728 729 734 736 739 740 736 740 741 718 707 719 718 715 718 715 715 715 714 716 717 718 721 723 725 729 730 733 734 736 739 741 744 746 748 751 753 755 758 760 763 765 767 771 774 777 780 782 784 787 788 790 793 796 799 801 804 807 810 812 814 817 820 823 826 828 830 832 835 837
719 723 720 722 730 733 735 734 726 720 718 717 721 725 724 725 728 729 734 738 739 742 739 735 730 712 704 712 714 714 718 717 717 718 715 716 718 719 722 724 726 729 730 731 733 734 738 739 742 744 747 749 752 754 757 759 762 764 767 770 773 776 779 781 784 786 787 789 792 795 797 800 803 806 809 811 814 816 819 822 825 827 829 832 834 837
718 721 719 718 718 717 718 717 711 710 716 720 721 724 723 724 725 726 732 735 734 742 741 728 721 716 707 704 707 713 719 718 718 719 718 718 719 720 723 724 725 727 728 730 732 734 737 739 741 743 746 748 750 753 756 759 761 764 766 769 772 775 779 781 783 786 788 790 793 795 797 799 802 805 808 810 813 816 819 821 824 826 829 831 833 836
717 719 720 718 714 710 710 711 707 708 715 720 721 724 724 725 728 728 729 729 728 737 736 722 721 724 711 700 703 710 716 717 716 718 719 720 721 722 723 724 725 727 727 729 731 734 736 738 740 742 744 747 749 752 755 758 761 763 766 769 771 774 777 780 782 785 788 792 795 796 797 799 802 804 807 809 812 815 818 820 823 825 828 830 833 835
717 719 720 720 716 712 712 713 709 705 711 715 716 720 723 725 730 728 727 728 725 725 725 720 722 721 707 700 703 707 711 712 713 715 718 720 721 722 723 724 725 726 727 729 731 733 735 737 739 741 744 746 748 751 754 757 760 763 765 768 770 773 776 778 781 784 787 791 795 796 797 799 801 804 806 809 812 815 817 820 823 825 827 830 832 834
715 718 720 719 716 712 712 714 710 706 710 713 713 715 718 721 725 723 723 728 725 721 724 725 723 716 704 701 706 709 711 711 711 715 718 720 722 722 723 724 724 726 727 728 730 732 734 736 738 741 743 746 748 750 753 756 759 762 764 767 770 772 774 777 780 783 786 789 793 795 796 798 801 803 806 809 812 815 817 820 822 825 827 829 831 834
714 719 719 717 715 714 713 712 710 708 709 711 713 713 714 719 723 720 722 730 729 726 728 730 726 717 707 707 713 714 714 713 714 716 718 719 721 721 722 723 724 726 727 728 729 731 733 736 738 740 743 745 747 749 751 755 758 760 763 766 769 771 774 776 779 781 784 787 790 792 794 797 800 803 806 808 811 814 817 819 821 824 826 828 830 833
714 718 717 716 715 715 714 712 711 710 711 713 715 715 714 719 722 720 722 728 726 721 725 731 725 712 707 714 719 717 715 714 715 716 717 718 719 718 720 722 723 724 725 726 728 729 731 734 736 738 741 744 747 748 751 754 757 759 761 764 767 770 773 775 777 780 783 785 787 790 793 796 799 802 805 808 810 813 815 818 820 822 825 827 829 832
716 715 715 719 717 715 717 714 710 714 721 721 715 711 712 715 718 720 723 724 719 716 720 723 713 704 711 719 716 714 716 715 713 713 715 716 716 715 717 719 720 721 723 724 726 728 730 732 734 737 740 743 745 748 750 753 756 758 760 763 766 769 772 774 776 778 781 783 786 789 792 795 798 801 804 807 809 812 814 817 819 821 824 826 828 831
718 714 717 721 716 716 720 713 709 721 727 720 712 709 709 710 712 716 718 717 715 713 713 711 707 709 718 719 709 708 712 710 709 710 711 712 714 714 716 717 718 719 721 723 725 727 729 731 733 736 739 742 745 747 750 753 756 758 761 763 767 770 772 774 776 779 781 783 786 789 792 795 797 800 803 806 809 811 813 816 818 820 823 825 828 830
717 715 722 723 717 718 718 711 718 729 721 713 716 717 714 713 711 709 708 709 711 713 710 708 709 711 715 713 708 707 707 707 707 708 708 709 711 713 715 716 716 718 720 721 723 726 728 730 733 735 738 742 744 747 750 752 755 759 761 763 766 768 769 771 774 778 781 784 785 788 791 794 797 800 802 805 808 810 812 815 817 819 822 824 827 829
716 717 722 721 719 721 715 711 721 724 714 712 719 719 718 719 715 712 712 710 708 711 710 708 709 712 714 714 712 709 708 709 708 707 707 708 709 711 713 713 714 717 718 719 722 724 727 730 732 735 738 741 744 746 749 752 755 757 759 760 761 763 766 769 771 775 780 783 784 785 790 794 796 799 802 804 807 809 811 813 815 817 820 822 825 828
715 718 720 718 719 720 714 713 717 716 714 715 715 714 716 715 711 711 711 705 702 708 712 709 709 715 717 715 713 712 709 708 709 708 706 706 708 709 710 711 713 716 718 719 721 724 726 729 732 734 737 740 743 746 748 751 754 756 758 760 761 763 766 768 769 772 776 781 782 784 788 792 795 797 800 803 805 807 809 812 814 816 819 821 824 826
715 717 717 717 721 720 713 714 718 719 718 715 711 711 714 714 714 713 708 700 699 707 711 708 709 716 717 715 714 712 707 705 704 703 702 705 707 709 710 712 713 715 718 720 721 724 727 729 731 734 737 739 742 745 747 749 752 754 756 759 761 764 765 767 769 772 776 779 781 782 785 790 793 795 798 801 803 806 808 810 813 815 818 820 823 826
718 719 719 718 721 719 710 709 716 720 717 712 709 710 714 716 715 712 708 702 699 705 711 709 709 715 716 713 712 709 704 701 699 696 697 702 707 708 710 712 713 715 718 719 721 724 726 729 732 734 737 739 742 745 747 749 751 752 753 756 760 763 765 768 771 773 775 778 780 782 783 787 791 794 797 800 802 804 806 809 812 815 817 820 823 825
716 719 721 719 719 720 714 710 716 717 713 711 709 710 714 716 712 711 713 707 700 704 711 710 708 711 712 711 710 706 698 694 695 696 697 701 706 708 709 711 713 715 718 720 722 724 727 730 732 734 736 739 742 744 746 748 750 752 754 756 758 762 765 769 772 774 775 777 780 782 783 785 788 792 795 798 801 802 804 807 810 813 816 819 822 824
716 721 724 718 715 717 714 712 716 715 710 710 711 711 714 714 711 710 711 706 702 705 708 708 707 707 708 708 707 703 698 697 699 701 701 703 706 708 710 712 714 716 719 721 723 726 728 730 732 734 736 739 741 744 745 747 749 751 753 755 758 761 763 765 768 771 774 777 779 781 783 785 786 788 793 797 799 802 804 807 809 812 814 817 820 823
716 718 720 716 715 717 714 713 716 715 711 713 713 712 711 710 708 708 706 705 706 706 705 706 707 706 706 707 705 703 703 704 704 705 705 705 707 709 711 713 716 718 720 722 725 727 729 731 733 735 737 739 741 743 745 747 748 750 752 755 757 759 761 763 766 769 772 775 778 780 783 785 786 788 792 796 798 801 804 806 809 811 813 816 818 821
714 712 712 714 719 718 713 713 716 713 712 715 713 710 709 708 707 709 708 706 705 704 705 706 706 705 706 706 705 706 707 707 706 706 706 707 708 710 712 715 717 720 722 723 726 728 729 732 734 736 738 740 742 743 745 747 749 749 752 756 760 761 764 767 770 772 773 775 778 780 782 785 788 790 791 793 796 799 802 805 808 810 812 814 817 820
715 712 710 713 717 714 707 710 715 713 714 717 713 710 711 710 710 713 711 705 703 703 704 704 703 704 704 703 704 706 707 707 707 707 707 709 711 712 714 716 718 721 723 725 727 728 730 732 735 737 739 741 742 744 746 748 749 750 754 759 761 762 764 766 769 772 774 776 778 780 782 785 788 789 789 791 794 797 800 803 806 809 811 814 816 819
716 715 712 713 718 716 712 713 716 715 716 717 716 714 714 712 712 713 711 707 704 704 704 703 702 703 703 703 704 705 706 708 709 709 710 711 712 713 715 717 720 722 724 727 728 730 732 733 735 738 740 741 743 745 747 748 749 751 755 758 760 760 762 764 767 770 774 776 778 780 783 786 788 788 789 792 795 797 799 801 803 806 809 812 815 818
718 719 716 714 717 718 716 716 716 716 717 717 716 715 714 713 712 712 711 708 706 705 705 704 702 702 702 702 702 704 707 710 710 710 712 712 714 716 717 719 721 723 725 728 730 732 733 735 737 739 741 742 744 745 747 748 749 752 755 757 759 761 762 765 767 770 773 776 778 781 784 786 787 789 790 793 796 799 800 801 803 805 808 810 814 817
718 718 716 715 716 717 717 717 718 718 719 719 716 714 714 713 713 712 711 709 708 707 707 705 703 702 702 702 702 704 708 710 710 711 713 714 715 717 718 720 723 724 726 729 731 733 734 736 738 739 741 743 744 745 746 748 750 752 755 757 759 762 763 766 768 770 773 775 778 781 783 784 786 788 791 793 796 799 800 802 803 806 808 810 813 816
718 715 715 716 719 720 719 719 719 719 719 719 717 716 716 715 714 712 712 711 710 708 707 705 703 703 703 704 705 707 710 711 710 711 714 716 717 719 720 722 723 725 728 730 732 733 735 736 738 740 741 743 743 744 746 748 751 753 755 757 760 762 764 766 768 769 773 775 777 780 782 783 785 787 790 793 795 798 799 801 803 805 807 809 811 813
720 716 717 719 722 723 722 720 718 717 716 716 717 719 720 718 716 715 713 712 710 708 706 705 705 705 706 708 709 710 712 713 712 713 716 717 718 720 721 722 724 726 729 731 733 735 736 737 738 740 742 743 743 745 747 749 751 753 755 757 759 761 764 766 768 770 773 775 778 779 781 783 785 787 789 792 795 797 799 800 802 803 805 807 809 811
719 718 720 720 719 720 720 718 716 715 716 717 719 720 721 720 718 716 714 713 712 710 708 707 707 708 709 710 711 712 714 714 716 718 719 719 720 722 723 724 726 728 730 732 734 736 737 738 740 741 742 743 744 746 748 750 752 753 755 757 759 761 763 766 768 771 774 775 777 779 780 782 785 787 788 791 793 796 798 800 802 804 805 807 809 811
721 720 720 718 716 718 718 716 716 716 718 721 723 723 722 720 718 717 717 717 716 714 712 710 710 711 712 712 713 714 715 715 717 720 722 723 723 723 725 725 727 729 731 733 735 736 738 739 740 741 742 744 745 747 748 750 752 754 755 758 759 761 763 765 768 770 772 774 776 777 779 782 784 786 788 791 793 795 797 800 803 805 806 807 809 811
Wind_Speed
6 7 9 10 10 10 12 11 3 3 9 12 10 9 8 9 6 4 4 3 8 9 10 12 12 15 10 8 10 10 12 13 13 12 10 10 11 11 13 13 13 14 12 9 8 10 13 15 16 17 16 16 17 15 15 17 18 19 19 19 19 19 20 19 19 17 14 12 10 10 10 10 11 10 10 11 11 10 10 9 8 8 8 9 9 6
7 10 11 8 6 9 13 11 5 3 8 11 11 9 7 8 5 5 6 4 6 7 7 9 12 16 10 8 9 9 12 14 14 15 13 14 14 12 13 15 14 12 9 7 7 10 13 14 15 17 17 17 16 16 17 18 19 19 20 20 19 19 19 18 18 17 14 13 12 10 9 10 12 11 11 12 12 11 10 10 10 10 11 10 9 7
9 10 8 7 7 10 13 13 7 5 7 7 8 9 6 5 3 4 4 2 6 6 4 7 11 14 7 5 6 11 13 14 15 16 15 15 15 14 14 14 13 12 11 11 10 10 13 15 15 16 18 18 17 18 18 18 19 19 20 19 18 19 18 17 18 18 16 16 15 13 12 12 13 13 12 12 12 12 11 12 12 12 12 10 8 6
8 7 8 8 9 13 14 15 10 6 5 4 6 9 6 4 4 5 4 3 5 2 1 7 9 8 3 4 4 9 12 11 13 15 13 13 14 14 14 12 11 13 13 13 13 11 12 15 15 16 18 18 17 18 18 18 18 19 18 18 19 20 18 19 21 22 21 19 17 15 14 14 14 14 14 12 11 12 13 14 14 14 12 10 8 6
4 4 10 10 11 15 15 16 14 7 4 2 3 6 6 6 4 2 3 3 3 0 2 6 5 5 3 5 5 6 9 11 12 14 14 14 14 13 12 12 13 14 14 13 13 11 11 14 15 15 17 18 16 17 19 19 19 20 17 16 20 20 18 20 23 26 26 23 19 16 15 15 15 13 12 12 10 12 15 16 16 14 12 9 7 5
3 3 10 13 12 15 15 15 16 11 6 3 3 4 6 9 6 2 3 4 5 5 3 3 6 4 3 6 6 5 8 12 12 13 16 16 15 14 13 14 14 14 14 13 12 11 11 13 14 15 16 18 17 16 19 21 21 22 20 18 20 18 18 20 23 28 29 25 23 21 19 18 15 13 12 12 12 15 18 17 16 14 11 8 6 4
3 2 8 14 13 15 15 13 15 13 7 5 4 5 4 6 7 4 3 5 6 5 2 1 7 4 2 5 5 6 10 13 12 14 16 15 13 14 14 14 13 13 13 13 12 11 11 13 15 15 16 18 18 16 18 21 21 22 23 24 23 20 18 20 24 28 27 25 25 24 23 21 17 15 14 13 16 18 17 15 14 13 10 7 6 5
8 7 8 13 14 13 13 10 12 14 9 4 4 7 7 5 5 5 3 3 1 1 2 1 4 4 4 3 2 5 8 9 11 14 15 14 14 16 15 14 13 13 12 11 11 11 11 14 15 16 17 16 17 16 17 20 20 22 27 29 30 27 20 20 26 28 25 24 26 26 24 22 17 15 17 18 19 17 13 13 14 13 10 8 6 5
11 11 8 12 13 10 9 8 11 14 9 3 4 8 7 5 4 3 2 2 2 1 5 4 4 5 6 2 3 4 7 8 12 16 16 14 15 16 15 14 14 13 12 11 11 11 11 14 16 17 18 17 18 18 18 20 20 23 27 29 34 32 21 21 28 28 24 24 26 26 25 22 17 18 21 20 17 13 11 13 14 12 10 9 8 6
8 11 8 10 11 7 8 9 12 15 8 4 7 7 5 3 3 1 1 1 1 3 6 7 7 7 5 3 4 4 6 10 11 12 13 14 14 15 14 15 14 12 12 11 11 11 11 15 17 17 19 19 19 20 19 21 22 23 23 27 35 32 20 21 28 27 25 26 27 27 26 24 22 22 23 19 14 15 15 14 13 13 11 10 9 7
3 8 8 7 7 7 9 10 13 14 8 8 9 7 5 3 1 1 1 0 2 5 5 7 6 5 5 3 5 6 6 8 8 8 10 12 13 14 14 14 14 12 11 11 10 11 12 15 17 18 20 20 19 19 19 21 22 23 21 22 29 28 22 23 27 28 28 30 30 28 26 25 25 25 25 21 17 19 20 15 12 13 13 11 9 7
2 7 7 5 7 8 9 10 11 12 10 11 10 7 6 3 1 2 1 1 5 5 3 5 6 5 7 4 4 8 7 7 9 9 10 12 14 15 13 12 12 11 12 11 10 10 11 14 17 19 20 20 19 19 19 20 20 20 17 22 26 26 27 26 27 30 32 32 30 28 25 24 25 26 26 24 22 22 22 17 14 15 14 12 10 8
3 5 5 6 10 12 11 10 8 8 9 11 10 9 8 6 4 5 5 4 5 3 1 3 6 5 6 5 5 9 9 9 10 9 10 11 12 12 11 11 11 11 12 11 10 11 11 12 15 18 20 21 22 21 19 19 18 16 22 24 24 24 25 26 28 31 31 32 30 27 24 23 24 25 26 26 25 24 23 20 18 18 16 13 10 8
4 2 5 9 10 12 13 12 9 8 10 12 11 12 10 7 7 7 6 3 3 3 1 1 4 3 4 5 8 12 12 10 10 10 10 8 7 8 10 11 11 13 13 11 10 11 12 12 15 18 20 21 22 21 20 19 18 21 28 27 24 22 23 26 26 26 26 27 27 25 23 23 24 25 26 26 25 25 23 20 19 18 16 13 11 9
8 4 8 11 7 12 16 10 7 7 8 7 5 7 7 5 5 5 5 4 3 3 2 2 3 4 4 3 4 7 6 5 7 9 9 7 5 7 9 11 12 14 14 12 12 12 13 15 17 17 18 20 22 22 21 20 19 25 30 28 22 19 22 22 19 20 23 24 23 23 22 22 23 24 26 26 25 24 23 20 19 17 15 13 11 10
8 3 6 8 3 13 16 5 6 10 8 4 2 5 6 4 3 2 1 2 3 2 3 3 3 2 3 2 0 2 4 4 5 7 8 7 7 9 10 11 13 14 14 13 13 13 14 16 18 18 18 20 22 22 22 21 21 24 28 27 22 21 23 20 18 20 22 22 22 21 21 22 23 24 25 25 24 24 22 20 18 16 14 12 11 11
7 3 7 10 5 11 14 8 8 10 7 4 5 7 4 2 4 3 1 2 1 4 3 2 4 4 4 5 1 2 4 4 3 5 8 8 10 11 10 11 12 13 14 14 13 14 14 15 17 19 20 21 22 23 23 22 21 22 27 31 29 26 23 22 22 23 23 23 23 21 21 23 23 24 24 25 25 24 22 19 17 15 13 12 11 12
5 4 7 12 9 9 11 11 9 7 6 6 7 6 4 3 1 1 3 2 3 6 3 2 6 6 5 4 2 2 4 5 4 5 7 8 10 11 10 11 12 13 14 14 14 14 13 14 17 19 21 23 23 23 22 22 22 21 26 33 32 25 22 23 25 25 25 25 22 19 20 21 23 24 24 25 26 25 22 20 18 16 13 13 13 15
4 4 5 11 11 8 9 11 9 6 4 5 6 5 3 4 4 2 2 3 5 5 2 3 4 4 6 6 3 3 6 6 5 6 8 10 12 11 10 11 13 14 14 14 14 13 12 14 18 20 21 22 22 21 22 22 22 21 25 33 32 25 22 23 23 24 24 23 20 17 18 20 24 25 24 25 27 25 23 21 19 16 14 15 16 17
3 3 4 9 9 9 8 10 10 8 3 2 6 6 2 2 4 3 1 2 5 4 2 3 3 3 6 6 8 9 7 6 6 7 9 12 12 10 10 11 13 14 14 13 14 14 13 14 18 21 21 21 20 20 22 22 21 20 24 31 29 25 22 21 21 22 22 21 18 17 18 21 24 26 25 26 27 25 23 21 19 17 16 17 18 18
1 1 4 7 7 8 9 9 10 12 8 6 9 9 4 2 2 2 1 0 2 3 3 3 3 4 4 4 9 11 4 5 8 8 8 8 9 8 9 11 12 13 13 13 14 15 14 15 18 21 20 19 18 19 21 22 21 20 24 27 25 24 23 22 22 22 21 20 18 19 22 23 24 24 26 28 27 25 24 21 19 18 17 19 19 18
2 1 4 7 7 7 7 5 7 12 12 9 7 7 6 4 4 6 5 1 0 0 2 2 2 4 3 2 5 5 1 3 7 7 6 6 8 9 9 11 12 12 13 13 14 14 13 14 17 20 20 19 18 20 22 22 21 21 23 25 24 22 24 24 22 21 21 20 17 18 22 24 23 23 26 28 27 26 24 22 20 19 18 19 19 19
2 1 3 5 5 4 4 6 9 12 11 8 6 7 6 4 5 8 7 3 2 1 1 1 1 2 1 1 2 2 0 3 5 6 6 6 8 10 10 11 12 11 12 12 12 12 12 14 17 19 20 20 20 21 21 21 23 23 22 25 25 23 23 25 23 21 20 19 17 17 20 23 23 23 26 29 28 26 25 23 22 20 20 20 20 20
2 1 3 6 5 2 3 4 9 11 10 8 7 8 8 6 5 6 3 2 4 3 2 2 2 1 1 2 2 2 2 2 3 5 6 7 8 10 11 12 11 12 11 11 11 10 11 14 16 17 18 20 21 21 21 21 23 23 23 24 25 24 23 24 24 21 20 19 17 17 19 23 25 25 28 29 28 27 26 25 24 22 21 21 21 20
3 1 3 7 7 4 4 5 8 11 11 9 6 7 9 6 4 3 2 3 5 4 2 3 3 1 1 1 1 1 2 2 3 5 7 8 8 10 11 11 11 12 11 11 11 11 13 14 15 15 17 18 20 21 23 22 21 22 24 24 24 24 23 23 23 21 20 20 19 17 18 21 24 27 30 29 28 29 27 26 25 23 22 22 21 21
1 1 2 6 9 8 7 5 6 8 9 7 6 9 11 10 8 5 3 4 6 3 3 5 5 2 1 0 1 2 3 3 3 6 7 8 9 10 11 10 11 12 12 13 13 13 14 14 14 16 17 19 21 22 23 22 19 20 23 23 24 24 22 22 23 21 21 22 21 19 19 20 24 28 30 30 30 30 28 27 25 24 24 23 22 23
1 2 1 3 6 6 5 3 5 8 9 8 9 11 12 10 8 4 3 5 5 4 4 7 5 4 6 2 1 1 2 3 4 6 8 8 9 10 11 12 11 11 13 14 13 13 14 14 14 16 17 20 22 21 22 21 18 19 21 22 24 25 22 22 23 21 21 22 21 21 20 20 24 29 30 30 31 30 28 27 26 26 26 24 23 24
0 0 1 2 2 2 1 2 7 13 12 9 10 10 10 8 7 5 4 4 5 6 5 5 2 3 9 5 1 0 3 4 5 7 8 8 9 10 11 13 13 12 13 14 13 13 14 14 14 15 15 18 21 21 22 20 17 19 22 22 24 26 24 23 22 19 18 21 22 21 20 20 25 31 31 31 31 29 27 27 27 27 27 26 25 25
1 1 1 2 2 3 3 2 5 13 13 10 12 13 11 9 9 9 5 3 5 5 3 2 4 7 9 4 1 1 4 6 7 8 8 8 10 11 12 14 15 15 15 15 15 14 14 14 14 14 14 16 19 22 22 21 19 19 22 23 24 26 27 26 23 18 18 24 24 20 19 25 29 31 31 31 31 29 28 27 27 28 28 27 25 25
2 1 1 2 3 4 4 4 4 10 13 12 13 14 13 11 11 10 7 4 4 3 1 1 3 7 7 3 1 1 2 4 6 8 9 11 12 13 14 15 16 15 15 16 15 14 13 12 12 14 14 14 18 22 21 20 21 20 21 24 25 24 26 26 22 18 19 22 22 21 25 30 32 32 32 31 30 29 28 27 27 28 28 27 26 25
2 2 1 1 2 3 2 5 6 8 12 13 12 13 14 12 11 10 6 3 2 4 1 3 2 6 4 2 1 1 1 4 7 10 11 12 13 14 14 15 15 15 15 15 15 14 13 12 11 13 14 13 16 20 20 19 20 21 22 24 24 22 21 22 21 19 19 21 22 26 31 33 33 33 33 31 30 29 28 27 27 28 28 28 27 26
2 2 1 1 2 1 1 5 8 7 8 10 11 12 13 12 10 7 4 4 5 6 3 2 5 5 1 0 1 1 4 6 8 11 12 12 14 15 16 15 15 15 15 15 16 16 15 14 13 13 14 16 17 18 18 18 19 21 22 22 24 23 20 21 22 20 20 24 28 31 34 35 34 34 32 31 29 28 26 26 27 27 28 28 28 28
1 1 1 2 1 1 2 4 9 8 5 6 7 10 13 11 8 5 2 4 6 5 4 5 6 3 1 2 3 3 6 6 7 10 11 12 15 16 15 15 15 15 16 16 16 17 17 15 14 14 15 18 21 20 18 18 17 18 19 21 23 25 24 25 26 22 23 29 33 34 35 36 35 33 32 30 28 26 25 25 26 27 28 29 28 28
1 1 1 1 1 2 2 6 10 7 6 4 1 4 8 9 10 10 8 8 8 5 2 3 2 1 1 5 5 5 7 6 6 9 11 12 13 13 13 14 14 15 15 15 15 16 15 15 16 17 17 18 21 21 20 20 19 17 17 19 21 25 28 28 25 25 28 31 33 34 35 36 35 33 32 30 28 26 25 25 27 27 28 28 28 29
1 1 1 1 0 1 2 7 8 6 4 1 3 1 2 1 6 9 7 7 8 7 5 4 2 2 4 5 4 4 5 4 5 8 10 11 11 11 12 13 13 14 15 15 15 14 13 14 17 19 18 18 20 22 22 21 21 21 22 23 26 29 31 28 24 25 27 28 31 35 35 34 34 33 32 30 28 27 26 26 27 28 28 28 28 28
1 1 0 1 1 1 3 6 5 3 1 3 3 3 3 2 3 5 4 5 6 8 7 4 2 3 3 4 4 3 3 3 3 5 7 10 11 11 11 11 13 14 14 14 15 15 15 16 17 18 18 18 19 21 22 20 21 25 28 30 33 31 27 25 26 29 27 25 30 36 36 34 34 33 32 31 29 27 27 27 28 28 29 29 29 28
1 1 1 1 0 1 3 3 2 1 2 2 3 3 2 1 3 4 5 4 4 6 6 3 2 4 4 4 4 4 4 4 2 3 6 8 10 10 9 8 10 12 12 13 15 17 18 18 19 19 20 20 19 20 23 24 24 26 25 25 28 26 23 23 26 29 30 29 31 36 37 35 35 34 33 31 29 28 28 29 29 29 29 29 28 28
0 1 2 1 1 1 2 4 3 3 3 2 2 2 1 1 2 2 4 4 3 4 6 5 4 6 6 6 7 7 5 3 1 2 5 8 9 9 7 5 7 10 12 14 14 15 17 18 19 20 20 21 20 20 24 27 29 29 24 20 21 21 22 23 23 24 28 29 32 37 39 37 35 34 33 32 30 29 29 30 30 29 28 28 27 27
2 1 1 0 1 2 2 3 3 2 2 1 2 1 1 2 3 3 5 5 2 3 5 6 5 8 8 8 8 8 4 2 1 1 4 8 9 9 9 7 8 9 12 14 14 14 16 18 18 19 20 20 20 22 25 27 28 29 26 23 22 22 21 21 20 22 26 28 30 35 39 38 36 34 33 32 29 29 30 31 30 29 28 26 26 26
2 2 1 2 2 1 1 2 2 1 1 1 2 2 1 2 3 5 6 5 2 2 5 6 6 8 9 8 8 6 2 2 2 2 2 7 9 8 8 8 9 10 10 11 12 13 16 17 16 18 20 19 19 22 28 29 27 25 24 23 22 20 18 17 17 21 26 29 31 33 36 38 38 35 33 31 28 29 31 31 31 29 28 27 25 25
0 1 1 2 1 2 1 2 2 0 0 0 3 4 1 2 4 5 5 2 1 1 4 6 6 7 8 7 6 3 2 1 1 3 1 8 9 8 7 7 9 9 9 11 13 14 15 15 15 17 19 19 19 22 26 29 26 23 21 21 19 17 18 20 22 25 29 31 33 34 34 35 36 36 33 29 28 29 30 31 31 30 29 27 25 23
1 1 1 1 1 1 1 2 2 1 1 1 4 4 1 2 4 2 0 1 2 3 2 5 6 6 7 6 3 1 2 3 4 2 4 8 9 9 9 9 10 9 9 12 15 15 14 13 13 13 14 16 19 22 25 27 24 21 18 18 18 20 21 23 26 29 31 32 32 31 31 31 32 32 29 27 28 30 31 31 30 30 29 27 24 23
1 1 1 1 1 1 2 3 2 3 2 2 4 2 0 0 0 1 2 2 3 3 2 3 5 5 7 6 2 1 2 3 4 5 8 8 9 10 10 10 11 10 11 12 13 13 13 12 12 12 11 13 17 22 26 25 22 20 14 13 16 17 18 20 23 26 28 30 30 29 30 31 30 27 26 28 29 31 32 31 29 29 28 26 25 24
1 1 1 1 1 0 1 2 1 1 2 2 2 1 1 2 2 2 3 2 2 1 2 2 3 5 7 6 2 0 1 3 5 6 8 8 9 9 9 9 10 11 11 10 11 13 13 11 11 11 10 12 17 21 24 24 24 21 11 12 15 17 18 21 24 25 25 27 29 30 31 32 30 27 27 29 31 33 34 32 30 29 27 26 26 26
1 1 1 1 1 1 1 2 1 1 2 2 1 0 2 4 2 2 3 4 3 2 2 2 1 5 6 4 2 1 2 4 5 6 8 9 9 9 9 9 10 11 11 10 10 12 11 10 10 10 9 11 14 16 19 22 24 21 14 14 17 20 21 24 27 26 27 28 29 29 31 32 30 28 28 30 31 33 34 33 31 30 29 28 28 28
1 2 2 1 2 1 2 2 1 2 3 3 1 1 2 3 3 2 3 3 3 3 3 3 1 5 5 3 2 1 2 5 7 8 8 9 9 9 10 10 10 11 11 11 10 10 9 9 10 9 9 10 12 14 16 19 22 21 19 19 20 21 22 25 26 27 28 29 28 28 31 32 29 27 29 30 31 32 33 32 32 31 30 29 29 28
1 1 1 2 2 1 2 2 2 3 3 4 3 2 2 4 4 3 3 3 4 3 2 1 2 4 4 3 2 2 3 5 8 9 9 9 9 9 9 10 10 11 11 11 11 10 9 9 8 9 11 11 12 14 16 17 19 20 21 22 23 23 24 26 26 26 27 29 29 30 32 31 28 27 29 30 31 31 31 31 31 31 30 30 29 28
1 2 1 2 2 1 2 2 1 1 0 2 3 3 3 5 6 5 4 3 2 3 3 3 3 3 3 3 4 4 4 5 7 9 8 8 9 9 9 10 10 11 11 10 11 11 10 9 9 9 10 11 12 15 15 15 16 19 21 23 25 26 27 27 27 27 27 28 30 31 30 29 28 28 30 30 30 30 30 30 31 31 31 30 30 29
2 2 1 2 4 4 3 2 2 2 2 4 5 5 5 5 5 4 3 4 4 6 8 9 8 6 5 5 4 5 5 6 7 8 8 8 9 9 9 10 11 11 11 10 10 11 10 9 9 9 9 10 13 14 13 13 16 19 22 24 26 29 29 29 27 25 24 26 29 29 28 27 27 28 29 29 29 29 29 30 32 33 32 31 30 28
1 1 0 2 4 4 2 2 2 2 4 4 5 7 7 6 4 3 6 8 9 9 9 10 11 10 8 7 5 5 7 8 8 7 7 8 8 8 9 11 12 11 11 10 10 10 9 9 9 10 10 11 13 13 12 13 15 19 22 24 27 30 31 30 26 22 21 23 25 27 28 27 24 25 29 31 30 28 26 26 28 30 30 30 29 27
1 0 1 1 3 2 1 2 1 2 3 2 3 5 6 5 5 8 10 10 10 9 9 10 10 10 9 8 7 6 8 9 9 8 6 6 8 9 10 11 11 11 11 11 11 10 10 10 10 11 11 12 12 13 13 13 15 18 20 22 25 28 29 29 26 22 21 23 25 27 29 27 23 25 29 30 29 28 25 23 23 24 25 26 27 25
Wind_Direction
177 181 195 200 193 176 171 174 145 83 148 150 164 171 172 188 188 189 192 184 185 189 201 193 202 223 207 167 190 194 195 208 212 212 213 213 217 217 218 222 221 224 230 218 193 182 187 195 195 190 186 188 194 196 193 189 188 187 182 182 185 190 192 191 191 189 184 185 189 186 183 182 186 195 196 184 179 181 185 191 191 185 181 176 171 166
185 205 207 188 155 146 158 168 135 109 155 153 169 175 177 195 181 176 194 180 180 199 200 187 207 225 210 170 190 190 191 206 207 207 211 212 217 220 223 226 224 228 227 206 186 176 182 191 191 187 185 186 189 192 193 189 187 188 184 180 182 188 189 186 184 182 183 187 190 193 185 176 180 186 185 178 177 181 182 183 180 176 176 174 169 164
199 215 187 144 135 143 157 172 149 123 158 160 172 177 175 185 152 154 197 166 172 203 200 175 208 225 197 134 186 192 195 205 204 205 207 207 212 217 221 224 224 229 227 218 208 191 188 188 185 183 186 190 191 193 194 191 189 189 186 180 182 187 182 178 180 179 187 194 195 198 192 183 181 178 177 177 177 180 179 175 173 173 172 169 165 163
201 204 155 138 149 151 158 174 164 124 151 162 169 177 175 167 159 165 174 148 157 210 193 167 204 229 166 108 210 211 208 211 209 214 219 218 219 220 222 226 226 228 228 224 217 204 193 186 183 184 186 189 192 194 194 192 192 191 188 182 183 185 177 174 177 178 188 195 194 196 191 184 177 169 170 173 172 175 175 170 169 169 167 164 163 162
189 151 144 145 155 158 161 174 177 162 152 163 181 179 162 162 183 155 132 138 136 110 130 150 197 238 190 180 208 218 218 220 218 221 227 229 230 231 233 234 232 231 230 226 216 205 194 184 182 184 185 187 190 195 195 193 191 189 189 188 188 185 173 173 177 179 186 188 185 180 172 169 162 155 161 162 161 168 169 166 166 165 162 162 160 156
183 134 151 155 158 162 163 175 184 180 161 166 215 202 156 155 165 112 112 153 168 188 171 163 212 219 185 202 195 168 201 219 220 224 228 226 226 229 233 232 231 233 233 230 220 206 194 182 179 183 185 186 192 197 196 196 193 188 187 189 193 189 174 172 176 179 182 182 181 172 162 160 153 149 160 162 161 165 165 164 163 161 158 157 153 149
182 163 168 165 158 162 168 177 183 181 171 167 191 195 158 134 139 126 138 171 184 189 140 224 227 211 167 208 194 166 196 215 216 223 230 225 221 223 226 227 227 230 230 229 223 206 188 179 179 186 187 187 193 196 196 199 196 189 189 188 191 194 183 174 174 179 181 179 180 174 167 166 161 158 166 170 169 166 164 162 159 157 152 150 151 148
178 178 182 172 160 165 177 176 180 184 180 165 158 167 162 138 134 123 128 165 192 148 111 192 226 232 220 200 148 170 198 215 216 225 231 224 221 222 225 226 225 226 227 226 219 205 189 182 182 187 188 187 191 192 194 198 194 190 193 190 190 194 189 178 175 177 179 179 179 174 169 169 167 167 168 169 168 164 159 157 155 155 152 149 153 152
176 183 180 175 171 176 176 156 165 179 179 162 151 159 161 152 139 118 131 133 42 216 200 175 169 221 228 163 97 168 201 223 222 225 228 223 222 224 227 228 228 229 228 224 218 207 192 184 184 187 191 189 189 191 193 196 196 194 192 185 186 191 186 178 180 178 178 182 181 176 171 168 166 167 165 163 161 156 151 152 154 156 155 154 156 154
181 189 173 177 182 172 154 140 158 177 180 140 134 132 125 134 138 136 244 155 63 237 208 169 170 218 230 168 145 171 210 227 225 225 226 223 222 221 223 225 225 225 224 220 213 204 191 183 181 185 191 191 188 190 193 197 199 199 193 179 178 185 184 181 186 182 179 183 183 180 175 169 165 163 162 158 155 156 156 154 156 159 158 158 158 154
169 178 167 178 182 157 144 145 164 176 164 135 139 129 109 107 127 146 323 340 224 240 208 169 174 220 236 189 168 190 212 214 213 224 225 221 219 218 218 219 217 215 215 212 198 191 188 180 177 181 188 189 185 187 194 198 199 202 196 165 157 171 184 187 189 186 180 182 185 183 178 172 168 165 165 163 161 162 161 157 157 162 162 161 162 154
142 162 170 171 168 156 141 150 171 172 157 152 160 157 143 133 125 149 131 206 221 227 188 173 176 203 230 215 179 204 214 206 211 221 219 215 213 212 212 209 206 207 209 203 186 180 182 178 176 179 185 185 181 185 193 197 201 199 175 143 144 167 182 185 190 187 180 178 182 181 178 176 175 173 173 171 166 165 165 160 158 164 165 164 163 154
171 162 166 158 170 174 156 152 171 172 170 175 169 166 172 169 164 186 191 193 213 218 58 166 177 199 238 246 239 234 232 225 223 227 225 221 212 203 199 194 192 198 200 193 182 180 182 182 181 180 182 181 179 184 188 193 200 175 144 146 163 176 179 182 189 188 180 177 178 178 178 180 180 179 179 175 170 171 170 165 164 167 168 167 163 155
162 148 179 170 171 185 177 166 173 178 182 184 175 177 183 174 175 191 190 180 193 189 44 108 173 209 254 243 231 233 236 232 228 232 235 232 212 189 183 181 185 192 192 186 182 185 187 188 186 181 180 178 178 181 184 191 188 154 145 165 180 177 178 183 187 185 176 173 175 177 179 181 180 180 181 179 176 175 173 169 169 171 172 170 163 157
164 158 185 182 166 179 188 184 162 150 168 182 172 178 184 177 184 186 177 172 162 150 125 134 183 202 203 197 207 228 254 254 239 244 242 230 199 175 173 176 183 189 188 187 188 190 192 191 186 178 175 177 179 181 183 187 178 156 157 172 177 175 179 179 177 177 174 173 176 180 181 181 181 181 181 181 179 176 173 171 171 171 172 170 163 161
174 140 163 180 176 176 182 178 128 139 162 185 144 171 192 184 153 118 120 154 132 138 155 179 218 220 231 268 210 232 265 250 242 242 226 210 177 164 173 177 182 190 188 188 190 189 191 189 183 177 173 175 179 181 182 181 175 166 163 166 172 180 179 169 165 175 181 180 179 181 182 182 182 181 181 181 179 178 175 171 169 168 169 169 166 163
176 118 150 177 201 189 177 159 165 170 163 161 175 183 176 117 117 119 112 43 88 209 182 162 220 234 262 272 172 175 231 216 216 214 199 188 169 168 179 178 181 191 189 188 190 190 189 184 179 178 176 177 179 180 180 180 178 169 158 161 174 181 174 168 173 181 185 182 178 181 185 184 185 186 184 182 180 180 176 169 166 165 165 168 167 161
175 123 160 182 185 192 177 164 188 198 149 152 185 175 114 70 51 122 156 138 177 211 193 152 213 219 229 242 121 139 223 219 198 188 181 174 175 181 182 176 181 189 190 190 191 192 189 180 176 176 175 176 178 179 182 183 179 169 157 161 172 176 172 176 181 182 180 177 175 179 183 185 188 189 186 181 180 180 174 166 164 165 165 169 168 161
200 135 159 192 180 170 176 175 191 212 188 177 172 150 135 189 199 166 163 167 173 194 194 178 216 231 213 223 236 193 212 221 193 176 184 185 188 191 180 175 182 186 188 191 190 190 187 178 175 174 171 171 174 179 185 184 179 172 157 155 165 178 183 184 183 179 176 176 175 175 179 184 189 190 185 180 180 178 172 166 165 166 167 169 167 162
218 153 153 200 183 153 170 189 191 190 194 180 162 161 200 211 183 181 179 172 178 180 177 177 196 235 212 223 250 236 219 205 182 182 198 197 193 191 177 176 183 185 188 190 189 189 186 178 175 173 167 165 171 179 184 183 180 174 156 153 168 183 184 183 183 180 177 179 179 175 178 185 188 189 184 180 180 177 171 168 166 167 168 168 168 165
225 206 151 173 167 158 182 202 194 180 170 176 181 178 179 151 148 192 182 86 192 175 174 184 194 228 214 205 239 242 225 186 190 195 204 200 192 187 177 179 184 185 188 190 189 189 186 177 171 170 166 164 172 180 182 181 178 171 158 159 175 181 176 180 184 182 179 181 182 179 182 186 187 186 183 180 179 176 171 169 168 168 168 168 169 167
193 209 153 158 169 178 181 173 172 176 174 179 186 178 176 164 155 185 190 179 319 143 164 188 214 231 213 190 235 245 133 186 204 197 192 187 187 188 184 184 185 185 188 190 189 187 183 174 168 167 166 166 173 179 179 178 176 170 161 162 173 175 172 178 181 181 181 181 181 180 181 184 183 183 183 179 177 174 171 170 169 168 168 169 169 168
181 149 141 148 162 169 146 146 166 171 168 174 187 181 180 180 178 190 192 169 164 136 110 154 276 244 154 73 269 279 330 230 211 189 181 174 180 185 184 184 183 184 188 190 190 186 180 175 168 166 167 170 178 179 176 175 175 171 164 164 172 173 172 177 181 183 182 180 179 176 176 179 180 181 181 178 176 174 172 171 170 170 171 172 170 170
184 161 125 124 131 120 85 126 162 163 162 179 198 189 182 189 189 188 183 169 193 193 158 192 247 239 68 16 291 267 273 258 206 184 178 168 176 182 180 180 179 180 183 184 185 180 172 169 165 167 172 176 182 181 177 177 175 170 167 168 172 174 174 177 182 184 182 180 177 171 169 174 177 179 179 178 177 175 174 173 171 173 175 174 172 172
190 242 143 138 152 148 110 133 168 177 184 190 189 181 183 179 156 149 135 164 205 208 171 207 237 215 93 1 327 107 143 173 186 191 183 171 174 179 177 177 173 174 179 180 180 174 168 168 167 173 178 179 183 182 179 179 177 171 170 170 171 173 173 175 180 184 184 182 177 171 168 169 173 177 179 179 178 177 176 174 174 176 178 177 175 174
142 223 160 157 171 167 159 170 176 176 183 183 166 171 183 182 170 164 143 171 199 185 156 216 242 262 256 147 83 89 119 141 167 187 190 179 174 174 173 172 169 172 181 184 179 172 171 176 178 182 183 182 183 183 179 179 177 171 170 170 171 171 170 174 180 184 184 182 177 174 171 168 170 177 180 180 179 178 177 176 176 178 180 180 179 177
107 200 212 196 189 176 158 124 108 137 166 175 162 168 183 186 176 156 144 184 186 139 172 223 245 297 288 274 85 104 140 149 171 181 186 180 172 171 172 171 172 176 184 187 180 170 173 181 186 187 185 184 185 184 180 178 173 169 167 167 171 173 172 175 179 183 182 178 175 175 173 169 173 179 182 182 180 179 178 178 179 181 182 184 182 179
3 255 190 195 217 217 179 86 133 154 167 169 160 167 181 180 174 179 180 173 147 141 198 226 176 249 268 275 27 174 180 174 185 184 180 174 169 171 173 174 177 178 183 189 184 174 175 182 188 188 185 185 186 184 182 178 169 165 164 163 168 174 178 179 179 179 175 171 174 176 171 170 177 182 183 181 179 179 179 180 182 183 184 185 183 182
247 304 199 178 243 248 243 271 181 166 164 168 173 178 182 175 181 199 200 164 165 181 225 211 167 215 252 265 74 228 207 186 180 173 167 166 167 171 175 178 183 184 184 189 189 181 178 183 188 187 184 184 183 180 180 179 171 165 163 165 169 175 181 183 181 177 169 169 176 177 171 175 180 181 180 178 176 177 178 180 183 185 186 185 185 185
219 263 205 198 267 266 227 223 200 170 162 169 181 184 183 179 183 198 199 169 191 236 3 87 207 243 263 268 110 256 227 177 158 154 157 165 170 174 180 184 187 188 187 189 191 188 183 181 183 184 181 179 177 173 174 176 174 169 167 169 171 172 178 183 182 176 168 168 174 176 174 177 178 177 175 175 174 175 177 181 184 186 186 186 186 188
212 214 153 187 301 312 182 163 174 180 170 169 180 186 185 183 185 198 197 147 199 258 109 98 256 266 275 290 332 314 208 160 155 160 163 168 173 177 184 189 188 189 189 190 191 190 185 177 175 179 178 176 172 167 168 174 175 171 170 171 173 173 175 180 180 175 171 169 171 174 174 174 174 174 173 173 174 176 179 184 186 187 187 187 187 188
213 226 106 346 301 6 92 153 160 165 171 176 185 188 184 182 186 197 185 157 198 219 161 142 252 259 257 291 285 210 182 173 168 169 170 172 177 183 188 190 188 188 189 189 189 190 188 180 174 176 178 182 181 169 164 170 174 172 170 171 175 178 177 178 178 176 175 176 174 173 172 172 171 171 172 173 175 178 182 186 187 188 187 186 186 185
175 249 8 340 308 9 27 144 137 126 153 191 198 190 182 178 178 176 166 196 207 198 170 200 238 265 94 165 194 184 190 194 184 179 177 177 184 190 190 187 188 189 189 189 190 192 192 186 179 176 175 185 194 190 175 170 171 172 171 171 175 178 177 177 179 177 177 178 175 172 171 170 170 170 172 175 177 179 183 186 186 187 187 185 183 182
73 314 299 306 308 345 59 121 127 136 175 197 238 192 180 175 175 175 186 209 204 193 219 246 263 348 167 196 203 194 195 199 187 185 187 186 189 193 190 187 189 190 190 191 191 191 194 193 188 181 174 180 192 194 185 175 172 171 168 165 168 172 175 177 178 180 179 175 173 172 172 171 172 173 173 175 178 179 182 184 184 185 184 182 180 180
12 39 242 236 354 342 106 128 138 165 190 5 4 178 154 158 188 185 194 210 201 203 243 268 256 232 217 223 235 213 196 195 184 184 192 195 193 189 188 189 190 190 190 193 193 191 189 191 190 184 177 177 182 184 181 176 173 172 171 170 172 177 180 177 175 179 179 173 171 174 174 173 174 173 173 174 176 178 180 183 183 182 181 180 180 181
294 70 226 239 93 126 148 143 147 161 93 32 54 109 94 67 173 180 202 222 207 206 219 233 221 207 214 236 245 217 182 176 181 192 198 199 195 190 189 189 188 190 192 192 194 193 186 184 186 183 177 175 176 176 175 172 170 172 174 178 182 184 182 175 172 177 180 174 172 173 174 175 175 172 171 173 175 177 180 182 182 182 181 180 180 183
205 140 267 289 100 155 145 126 108 124 127 95 94 111 117 148 158 170 202 214 199 193 197 196 180 185 204 222 210 182 159 138 147 226 210 198 196 195 191 186 184 188 192 192 193 193 190 187 185 180 174 172 172 171 171 172 174 175 177 182 185 184 180 176 175 178 180 178 173 172 175 177 176 173 173 175 177 179 182 182 181 180 180 180 180 183
128 256 262 305 327 252 138 120 121 144 143 135 152 143 134 216 213 199 207 202 167 172 185 187 179 177 191 202 188 177 164 130 97 244 198 187 191 189 180 170 174 182 187 187 184 182 185 186 183 176 172 173 174 171 171 174 177 179 181 184 184 183 183 183 179 176 179 179 174 173 176 177 176 176 177 177 178 180 181 181 180 180 180 181 182 185
107 84 136 147 271 252 165 134 134 133 114 163 204 156 62 228 204 182 201 200 164 152 180 190 185 177 186 197 184 174 166 137 128 173 170 171 177 179 172 161 161 171 176 177 174 170 174 178 176 174 175 175 174 174 177 179 178 179 182 185 186 187 188 186 181 178 179 177 172 172 175 176 176 178 176 175 179 184 185 182 181 180 182 184 186 188
139 76 132 201 218 196 139 104 106 108 87 192 249 324 346 200 173 177 196 194 141 139 176 188 189 180 186 199 193 190 203 145 120 25 130 151 156 165 164 153 153 159 159 165 169 167 168 169 168 173 179 179 177 178 181 183 182 180 185 190 189 187 185 181 178 179 177 174 173 174 175 175 178 178 177 179 185 189 186 183 181 180 181 184 187 189
309 52 192 217 163 138 138 97 99 126 116 309 305 320 318 178 174 184 188 157 77 216 186 187 198 189 187 196 198 212 286 351 1 343 87 134 139 146 144 133 136 142 143 150 158 160 163 168 173 177 180 181 180 179 181 184 187 187 189 192 190 184 182 179 177 178 177 176 177 177 175 176 178 177 178 185 188 184 180 180 180 180 181 183 184 187
233 154 175 178 114 138 139 89 97 128 107 355 316 314 283 184 173 177 274 326 248 248 203 192 205 200 191 195 200 264 301 327 345 17 117 129 136 141 137 128 124 124 130 142 151 156 158 165 173 175 174 175 177 180 184 188 193 197 190 180 181 187 185 180 176 175 175 176 176 173 173 176 174 171 177 184 183 177 176 178 181 182 182 182 182 184
240 175 157 160 143 123 89 96 122 138 112 353 321 321 31 42 167 307 312 271 228 243 249 216 207 195 187 192 214 278 298 353 26 85 109 113 126 133 133 130 129 130 135 139 147 155 155 158 167 167 164 167 171 179 185 187 196 208 194 153 156 174 175 169 169 168 169 171 170 171 176 173 164 168 182 185 180 178 177 178 181 183 182 182 181 182
246 217 205 179 176 169 91 102 94 69 46 347 336 83 57 343 317 283 286 290 284 269 257 244 201 182 183 186 194 258 38 42 59 91 104 106 117 126 126 123 123 129 135 135 144 155 155 155 162 163 162 166 170 177 181 183 193 205 184 127 142 169 172 170 170 166 165 169 170 174 176 168 163 176 188 184 180 181 179 178 181 181 180 181 181 181
324 254 248 93 152 242 59 84 54 350 340 323 332 306 317 327 318 269 260 275 301 319 295 296 179 167 172 170 154 66 57 74 81 91 103 107 112 119 119 114 113 120 127 130 139 152 155 153 156 155 149 156 166 170 173 180 188 189 168 149 169 182 176 170 169 165 166 170 173 173 169 165 170 181 183 178 178 179 177 177 178 178 178 181 182 181
322 265 259 104 149 172 60 58 8 359 0 345 335 239 303 342 348 320 286 286 315 328 297 286 155 152 162 157 119 58 88 111 107 100 102 105 108 110 110 108 108 114 121 126 130 138 142 142 147 144 128 132 155 166 171 181 185 179 169 169 180 185 178 170 166 165 166 169 171 169 166 168 175 179 176 177 180 181 180 180 179 178 178 181 183 184
289 258 222 112 127 149 91 56 2 6 354 337 354 32 18 11 8 351 335 324 333 341 311 268 131 129 136 127 107 100 114 121 113 105 104 106 108 108 108 108 110 109 113 121 128 134 135 134 141 140 126 129 154 171 178 183 179 171 168 170 175 180 179 172 167 164 164 168 170 169 170 174 176 173 174 178 181 181 182 183 181 180 180 181 183 185
287 300 351 86 69 49 98 87 7 9 264 339 23 39 12 3 9 11 5 342 347 37 58 65 79 87 87 85 91 102 110 107 103 104 107 108 108 109 111 110 109 108 110 117 130 138 140 142 149 148 138 143 165 178 181 178 170 165 165 166 170 174 173 171 171 168 165 168 170 171 174 178 176 172 173 177 180 182 183 183 184 185 186 189 190 190
276 310 350 96 97 93 103 140 192 161 84 39 31 28 11 356 353 358 13 18 29 50 61 62 58 56 63 69 75 93 98 88 87 99 109 112 112 113 113 110 108 110 113 117 131 142 148 151 151 145 143 157 173 179 175 167 165 167 166 165 168 170 170 171 172 168 165 168 170 172 176 177 175 173 172 175 181 186 188 189 191 191 193 196 198 198
308 16 57 142 128 123 134 177 188 138 85 42 7 8 4 346 337 14 36 36 34 37 51 65 65 59 57 56 61 89 95 81 75 85 97 106 111 111 112 112 109 109 113 118 129 139 146 149 146 142 150 165 174 175 171 164 164 169 170 168 168 169 168 167 166 164 166 169 170 173 175 174 172 173 175 178 182 184 186 190 193 195 197 199 201 204
341 177 241 165 115 120 161 173 172 105 93 61 346 1 0 347 17 48 46 39 39 36 43 61 67 61 54 48 51 80 102 101 96 92 86 92 101 105 109 113 115 116 121 126 132 138 142 147 152 155 161 169 172 173 175 172 167 170 173 172 171 171 169 165 163 164 168 171 172 174 175 173 171 174 178 182 183 181 180 183 190 197 203 204 204 209